Location: *
(51.5000°N, 0.1100°W)
Time: 00:19:13
(UTC+00:00)

MSX - Pass Details

Date: 07 August 2024
Orbit: 895 x 904 km, 99.0° (Epoch: 09 September)

Event Time Altitude Azimuth Distance (km) Brightness Sun altitude
Rises 03:35:46 0° 9° (N) 3,544 7.8 -8.3°
Reaches altitude 10° 03:38:35 10° 357° (N) 2,599 6.8 -8.0°
Maximum altitude 03:43:09 25° 305° (NW) 1,752 5.2 -7.5°
Drops below altitude 10° 03:47:43 10° 252° (WSW) 2,587 5.6 -6.9°
Enters shadow 03:48:30 - 248° (WSW) 2,838 5.8 -6.8°
